time_stamp(utc),avg(mph),gust(mph),direction(deg),12m_air_temp(f),sonic_u(cm/s),sonic_v(cm/s),sonic_w(cm/s),pressure,2m_air_temp(f),pyranometer(W/m^2)
"2020-07-26 00:03:00+00",13.4,15.4,,78.2,-306,-528,2,1017.58,78.3,0
"2020-07-26 00:08:00+00",11.4,13.4,,78.1,-231,-455,-4,1017.45,78,0
"2020-07-26 00:13:00+00",8.0,9.0,,77.9,-196,-301,2,1017.48,77.8,0
"2020-07-26 00:18:00+00",9.8,11.8,,77.9,-208,-396,-10,1017.43,77.6,0
"2020-07-26 00:23:00+00",9.0,11.0,,77.8,-218,-353,10,1017.41,77.6,0
"2020-07-26 00:28:00+00",9.2,10.2,,77.7,-185,-370,4,1017.29,77.4,0
"2020-07-26 00:33:00+00",7.6,9.6,,77.6,-95,-321,1,1017.3,77.3,0
"2020-07-26 00:38:00+00",7.4,10.4,,77.4,-46,-299,-6,1017.15,77.1,0
"2020-07-26 00:43:00+00",9.6,12.6,,77.2,-128,-391,4,1017.15,76.9,0
"2020-07-26 00:48:00+00",9.5,10.5,,77.2,-187,-391,7,1017.18,76.9,0
"2020-07-26 00:53:00+00",7.7,8.7,,77.1,-169,-302,6,1017.22,76.8,0
"2020-07-26 00:58:00+00",9.3,10.3,,77.2,-208,-368,23,1017.43,76.7,0
"2020-07-26 01:03:00+00",10.6,12.6,,77.2,-239,-426,9,1017.58,76.7,0
"2020-07-26 01:08:00+00",10.7,11.7,,77.3,-253,-429,7,1017.62,76.7,0
"2020-07-26 01:13:00+00",7.8,8.8,,77.2,-191,-302,16,1017.71,76.7,0
"2020-07-26 01:18:00+00",8.0,9.0,,77.2,-191,-314,7,1017.84,76.7,0
"2020-07-26 01:23:00+00",8.2,10.2,,77.2,-190,-317,7,1017.84,76.7,0
"2020-07-26 01:28:00+00",8.1,9.1,,77.1,-176,-322,1,1017.91,76.6,0
"2020-07-26 01:33:00+00",7.7,8.7,,77.1,-138,-303,-1,1017.99,76.5,0
"2020-07-26 01:38:00+00",7.8,9.8,,77,-135,-317,-2,1018.11,76.5,0
"2020-07-26 01:43:00+00",7.9,8.9,,77,-158,-310,0,1018.14,76.4,0
"2020-07-26 01:48:00+00",9.0,11.0,,76.9,-140,-365,-23,1018.07,76.3,0
"2020-07-26 01:53:00+00",9.1,10.1,,76.9,-236,-336,9,1018.21,76.3,0
"2020-07-26 01:58:00+00",8.9,10.9,,76.9,-213,-343,10,1018.16,76.3,0
"2020-07-26 02:03:00+00",9.9,12.9,,76.9,-267,-369,-6,1018.08,76.3,0
"2020-07-26 02:08:00+00",9.2,11.2,,76.9,-210,-351,16,1018.23,76.3,0
"2020-07-26 02:13:00+00",10.3,11.3,,76.8,-252,-396,-4,1018.25,76.3,0
"2020-07-26 02:18:00+00",8.1,10.1,,76.8,-232,-289,20,1018.38,76.3,0
"2020-07-26 02:23:00+00",8.4,9.4,,76.8,-219,-314,-1,1018.35,76.2,0
"2020-07-26 02:28:00+00",7.5,8.5,,76.7,-204,-275,0,1018.46,76.1,0
"2020-07-26 02:33:00+00",7.4,8.4,,76.6,-209,-257,4,1018.55,76.1,0
"2020-07-26 02:38:00+00",6.8,8.8,,76.6,-198,-232,8,1018.51,76.1,0
"2020-07-26 02:43:00+00",8.0,9.0,,76.6,-198,-307,12,1018.42,76,0
"2020-07-26 02:48:00+00",8.4,9.4,,76.6,-196,-332,4,1018.49,76,0
"2020-07-26 02:53:00+00",9.9,11.9,,76.7,-250,-387,1,1018.52,76,0
"2020-07-26 02:58:00+00",8.2,11.2,,76.7,-216,-309,8,1018.61,76,0
"2020-07-26 03:03:00+00",9.3,11.3,,76.7,-232,-358,-1,1018.7,76.1,0
"2020-07-26 03:08:00+00",9.1,11.1,,76.7,-205,-351,7,1018.48,76.1,0
"2020-07-26 03:13:00+00",10.7,12.7,,76.7,-230,-433,2,1018.47,76.1,0
"2020-07-26 03:18:00+00",9.3,10.3,,76.7,-202,-365,6,1018.55,76.1,0
"2020-07-26 03:23:00+00",9.1,11.1,,76.6,-218,-359,8,1018.46,76.1,0
"2020-07-26 03:28:00+00",12.1,14.1,,76.6,-215,-490,-15,1018.34,76,0
"2020-07-26 03:33:00+00",9.5,11.5,,76.6,-199,-379,7,1018.27,76.1,0
"2020-07-26 03:38:00+00",9.8,10.8,,76.6,-214,-392,0,1018.36,76.1,0
"2020-07-26 03:43:00+00",9.6,11.6,,76.6,-214,-385,6,1018.28,76.1,0
"2020-07-26 03:48:00+00",9.3,10.3,,76.6,-213,-359,1,1018.28,76,0
"2020-07-26 03:53:00+00",9.0,10.0,,76.6,-223,-351,6,1018.33,76,0
"2020-07-26 03:58:00+00",11.0,12.0,,76.7,-245,-429,-3,1018.35,76,0
"2020-07-26 04:03:00+00",9.4,11.4,,76.7,-246,-359,8,1018.45,76,0
"2020-07-26 04:08:00+00",9.6,10.6,,76.7,-258,-362,1,1018.46,76,0
"2020-07-26 04:13:00+00",9.9,11.9,,76.8,-257,-363,10,1018.44,76.1,0
"2020-07-26 04:18:00+00",8.8,9.8,,76.7,-231,-332,-7,1018.37,76.1,0
"2020-07-26 04:23:00+00",9.3,11.3,,76.7,-252,-333,3,1018.5,76,0
"2020-07-26 04:28:00+00",9.7,10.7,,76.7,-255,-359,3,1018.45,76,0
"2020-07-26 04:33:00+00",9.8,11.8,,76.8,-268,-346,6,1018.45,76,0
"2020-07-26 04:38:00+00",10.6,12.6,,76.8,-293,-390,-5,1018.51,76.1,0
"2020-07-26 04:43:00+00",9.8,10.8,,76.8,-270,-347,7,1018.45,76.1,0
"2020-07-26 04:48:00+00",9.7,11.7,,76.8,-286,-332,6,1018.53,76.1,0
"2020-07-26 04:53:00+00",10.2,11.2,,76.8,-317,-308,-1,1018.48,76.1,0
"2020-07-26 04:58:00+00",10.1,11.1,,76.7,-309,-315,6,1018.42,76.1,0
"2020-07-26 05:03:00+00",11.3,14.3,,76.7,-340,-374,1,1018.34,76.1,0
"2020-07-26 05:08:00+00",10.5,11.5,,76.7,-316,-356,9,1018.3,76.1,0
"2020-07-26 05:13:00+00",11.0,13.0,,76.7,-347,-327,13,1018.41,76.1,0
"2020-07-26 05:18:00+00",9.9,10.9,,76.6,-305,-307,14,1018.39,76.1,0
"2020-07-26 05:23:00+00",10.9,11.9,,76.6,-325,-346,1,1018.4,76,0
"2020-07-26 05:28:00+00",10.5,11.5,,76.6,-310,-346,0,1018.41,76,0
"2020-07-26 05:33:00+00",11.1,13.1,,76.6,-333,-379,-5,1018.34,76,0
"2020-07-26 05:38:00+00",11.0,12.0,,76.6,-319,-384,6,1018.38,76,0
"2020-07-26 05:43:00+00",10.4,12.4,,76.5,-296,-367,5,1018.22,76,0
"2020-07-26 05:48:00+00",10.9,13.9,,76.5,-315,-391,10,1018.15,76,0
"2020-07-26 05:53:00+00",10.7,12.7,,76.5,-307,-381,12,1018.17,76,0
"2020-07-26 05:58:00+00",10.6,12.6,,76.5,-301,-367,8,1018.19,76,0
"2020-07-26 06:03:00+00",10.4,12.4,,76.5,-305,-360,9,1018.14,76,0
"2020-07-26 06:08:00+00",10.4,12.4,,76.4,-300,-362,11,1018.2,76,0
"2020-07-26 06:13:00+00",10.8,11.8,,76.4,-307,-384,-1,1018.12,75.9,0
"2020-07-26 06:18:00+00",10.1,11.1,,76.4,-283,-371,18,1017.99,75.9,0
"2020-07-26 06:23:00+00",9.5,11.5,,76.3,-270,-351,15,1017.96,75.9,0
"2020-07-26 06:28:00+00",10.7,12.7,,76.3,-328,-337,4,1017.92,75.9,0
"2020-07-26 06:33:00+00",10.4,11.4,,76.2,-318,-341,0,1018,75.8,0
"2020-07-26 06:38:00+00",9.4,10.4,,76.2,-282,-315,14,1018.03,75.8,0
"2020-07-26 06:43:00+00",9.6,11.6,,76.1,-288,-314,10,1017.89,75.8,0
"2020-07-26 06:48:00+00",9.1,11.1,,76.1,-268,-279,16,1017.95,75.7,0
"2020-07-26 06:53:00+00",8.8,11.8,,76.1,-258,-306,13,1017.97,75.7,0
"2020-07-26 06:58:00+00",10.2,12.2,,76.2,-302,-336,-7,1017.94,75.6,0
"2020-07-26 07:03:00+00",10.4,11.4,,76.1,-313,-338,-7,1017.93,75.6,0
"2020-07-26 07:08:00+00",10.3,12.3,,76.1,-326,-313,-3,1018,75.6,0
"2020-07-26 07:13:00+00",9.4,10.4,,76.1,-280,-304,7,1018,75.6,0
"2020-07-26 07:18:00+00",9.4,11.4,,76.1,-276,-312,-2,1017.88,75.6,0
"2020-07-26 07:23:00+00",8.3,10.3,,76,-250,-274,15,1017.89,75.6,0
"2020-07-26 07:28:00+00",8.0,10.0,,76,-238,-275,5,1017.91,75.6,0
"2020-07-26 07:33:00+00",8.3,9.3,,76,-244,-283,5,1017.84,75.6,0
"2020-07-26 07:38:00+00",8.4,9.4,,76,-228,-307,-2,1017.85,75.5,0
"2020-07-26 07:43:00+00",7.8,8.8,,75.9,-206,-291,5,1017.77,75.5,0
"2020-07-26 07:48:00+00",8.4,9.4,,75.9,-241,-298,0,1017.87,75.5,0
"2020-07-26 07:53:00+00",7.4,8.4,,75.9,-209,-266,10,1017.92,75.5,0
"2020-07-26 07:58:00+00",7.7,8.7,,75.9,-227,-267,2,1017.86,75.5,0
"2020-07-26 08:03:00+00",7.5,8.5,,76,-211,-264,4,1017.81,75.5,0
"2020-07-26 08:08:00+00",7.4,8.4,,76,-225,-241,3,1017.79,75.5,0
"2020-07-26 08:13:00+00",7.3,8.3,,76.1,-213,-234,-2,1017.86,75.5,0
"2020-07-26 08:18:00+00",8.2,9.2,,76.1,-266,-240,-1,1017.75,75.5,0
"2020-07-26 08:23:00+00",8.2,9.2,,76.2,-250,-263,4,1017.7,75.5,0
"2020-07-26 08:28:00+00",8.3,10.3,,76.2,-246,-278,1,1017.6,75.5,0
"2020-07-26 08:33:00+00",8.7,9.7,,76.2,-262,-284,3,1017.68,75.6,0
"2020-07-26 08:38:00+00",9.2,11.2,,76.2,-271,-304,8,1017.57,75.6,0
"2020-07-26 08:43:00+00",9.2,11.2,,76.2,-265,-318,14,1017.58,75.5,0
"2020-07-26 08:48:00+00",9.7,10.7,,76.2,-289,-309,-8,1017.57,75.6,0
"2020-07-26 08:53:00+00",8.0,9.0,,76.1,-218,-295,5,1017.57,75.5,0
"2020-07-26 08:58:00+00",8.2,9.2,,76,-227,-298,16,1017.58,75.5,0
"2020-07-26 09:03:00+00",9.9,10.9,,76,-259,-367,4,1017.61,75.4,0
"2020-07-26 09:08:00+00",9.4,11.4,,76,-255,-337,10,1017.61,75.4,0
"2020-07-26 09:13:00+00",10.6,11.6,,76,-293,-385,-8,1017.63,75.4,0
"2020-07-26 09:18:00+00",9.0,11.0,,75.9,-248,-320,3,1017.56,75.4,0
"2020-07-26 09:23:00+00",8.9,10.9,,76,-251,-322,7,1017.59,75.4,0
"2020-07-26 09:28:00+00",10.1,12.1,,76,-283,-355,9,1017.61,75.4,0
"2020-07-26 09:33:00+00",9.4,10.4,,76,-256,-346,7,1017.69,75.4,0
"2020-07-26 09:38:00+00",10.1,12.1,,76,-270,-380,-7,1017.66,75.4,0
"2020-07-26 09:43:00+00",10.1,12.1,,76,-308,-331,0,1017.73,75.4,0
"2020-07-26 09:48:00+00",10.7,11.7,,76,-315,-383,12,1017.8,75.4,0
"2020-07-26 09:53:00+00",9.7,10.7,,76,-276,-353,-2,1017.78,75.4,0
"2020-07-26 09:58:00+00",9.2,11.2,,76.1,-273,-318,12,1017.6,75.4,0
"2020-07-26 10:03:00+00",9.2,11.2,,76.1,-271,-310,9,1017.63,75.4,0
"2020-07-26 10:08:00+00",9.2,11.2,,76.1,-273,-305,15,1017.64,75.5,0
"2020-07-26 10:13:00+00",10.9,12.9,,76.2,-313,-404,1,1017.57,75.5,0
"2020-07-26 10:18:00+00",10.9,12.9,,76.2,-325,-376,-2,1017.64,75.6,0
"2020-07-26 10:23:00+00",10.1,12.1,,76.3,-291,-352,8,1017.61,75.6,0
"2020-07-26 10:28:00+00",10.8,13.8,,76.3,-319,-379,17,1017.63,75.7,0
"2020-07-26 10:33:00+00",10.5,12.5,,76.3,-296,-379,-1,1017.6,75.8,0
"2020-07-26 10:38:00+00",9.1,12.1,,76.4,-275,-300,16,1017.66,76,0
"2020-07-26 10:43:00+00",10.3,12.3,,76.5,-318,-326,4,1017.59,76.3,0
"2020-07-26 10:48:00+00",10.1,11.1,,76.5,-324,-311,15,1017.5,76.5,0
"2020-07-26 10:53:00+00",11.9,13.9,,76.6,-356,-396,6,1017.59,76.8,0
"2020-07-26 10:58:00+00",11.0,13.0,,76.6,-347,-342,7,1017.51,77.1,0
"2020-07-26 11:03:00+00",9.8,11.8,,76.7,-304,-291,8,1017.5,77.4,0
"2020-07-26 11:08:00+00",10.5,11.5,,76.8,-344,-298,-5,1017.52,77.7,0
"2020-07-26 11:13:00+00",10.2,11.2,,76.9,-311,-321,20,1017.47,78.1,0
"2020-07-26 11:18:00+00",8.5,9.5,,77,-285,-243,12,1017.47,78.5,0
"2020-07-26 11:23:00+00",9.3,10.3,,77.1,-312,-262,19,1017.58,79,0
"2020-07-26 11:28:00+00",9.3,10.3,,77.3,-318,-257,8,1017.58,79.3,0
"2020-07-26 11:33:00+00",10.7,11.7,,77.4,-426,-273,7,1017.52,79.8,0
"2020-07-26 11:38:00+00",9.5,11.5,,77.6,-336,-264,15,1017.54,80.4,0
"2020-07-26 11:43:00+00",10.0,13.0,,77.8,-390,-242,39,1017.5,80.9,0
"2020-07-26 11:48:00+00",10.5,12.5,,78,-442,-264,7,1017.46,81.5,0
"2020-07-26 11:53:00+00",9.8,10.8,,78.2,-408,-239,17,1017.54,82,0
"2020-07-26 11:58:00+00",9.5,10.5,,78.2,-355,-249,22,1017.52,82.5,0
"2020-07-26 12:03:00+00",9.2,11.2,,78.5,-387,-211,7,1017.29,82.6,0
"2020-07-26 12:08:00+00",9.8,11.8,,79,-361,-208,31,1017.28,83.2,0
"2020-07-26 12:13:00+00",8.5,10.5,,79.2,-314,-224,54,1017.2,83.7,0
"2020-07-26 12:18:00+00",11.0,13.0,,79.7,-433,-290,18,1017.05,84,0
"2020-07-26 12:23:00+00",9.9,11.9,,79.9,-362,-270,49,1017.13,84.5,0
"2020-07-26 12:28:00+00",10.9,11.9,,80,-391,-298,7,1017.02,84.8,0
"2020-07-26 12:33:00+00",10.8,12.8,,80.1,-383,-301,19,1016.94,85,0
"2020-07-26 12:38:00+00",11.0,13.0,,80.3,-411,-297,12,1016.95,85.5,0
"2020-07-26 12:43:00+00",10.7,12.7,,80.5,-452,-264,8,1016.93,86,0
"2020-07-26 12:48:00+00",8.8,9.8,,80.7,-347,-177,64,1016.93,86.5,0
"2020-07-26 12:53:00+00",10.0,13.0,,81.1,-403,-165,16,1016.84,87,0
"2020-07-26 12:58:00+00",9.2,11.2,,81.2,-380,-160,12,1016.87,87.4,0
"2020-07-26 13:03:00+00",10.0,11.0,,81.4,-425,-119,20,1017,87.8,0
"2020-07-26 13:08:00+00",10.1,11.1,,81.7,-424,-152,50,1016.95,88.2,0
"2020-07-26 13:13:00+00",12.4,14.4,,81.7,-543,-92,17,1016.95,88.4,0
"2020-07-26 13:18:00+00",10.7,12.7,,81.8,-443,-106,15,1016.94,88.1,0
"2020-07-26 13:23:00+00",9.0,11.0,,82.2,-387,-114,78,1016.91,88.3,0
"2020-07-26 13:28:00+00",11.4,14.4,,82.3,-472,-205,5,1016.87,88.6,0
"2020-07-26 13:33:00+00",11.7,12.7,,82.4,-500,-104,16,1016.89,89,0
"2020-07-26 13:38:00+00",10.9,11.9,,82.5,-402,-291,6,1016.92,89,0
"2020-07-26 13:43:00+00",10.7,12.7,,82.7,-445,-167,28,1016.83,89.3,0
"2020-07-26 13:48:00+00",9.6,11.6,,82.9,-391,-121,51,1016.84,89.3,0
"2020-07-26 13:53:00+00",9.2,10.2,,83.2,-390,-91,43,1016.85,89.6,0
"2020-07-26 13:58:00+00",9.2,11.2,,83.5,-374,-170,29,1016.72,90.1,0
"2020-07-26 14:03:00+00",8.0,9.0,,83.5,-286,-214,14,1016.67,90.5,0
"2020-07-26 14:08:00+00",9.1,11.1,,83.5,-385,-81,12,1016.67,91.1,0
"2020-07-26 14:13:00+00",10.0,13.0,,83.8,-401,-179,18,1016.64,91.3,0
"2020-07-26 14:18:00+00",7.8,9.8,,83.8,-279,-225,15,1016.6,91.2,0
"2020-07-26 14:23:00+00",8.4,9.4,,84.1,-284,-239,32,1016.57,91.4,0
"2020-07-26 14:28:00+00",8.7,10.7,,84.1,-274,-274,16,1016.62,91.8,0
"2020-07-26 14:33:00+00",7.5,8.5,,84.3,-321,-66,51,1016.51,92.2,0
"2020-07-26 14:38:00+00",7.7,9.7,,84.5,-293,-201,18,1016.44,92.2,0
"2020-07-26 14:43:00+00",9.7,10.7,,84.7,-422,-63,-4,1016.36,92.1,0
"2020-07-26 14:48:00+00",9.6,10.6,,84.9,-381,-236,18,1016.43,92.2,0
"2020-07-26 14:53:00+00",7.8,8.8,,85,-297,-192,45,1016.44,92.3,0
"2020-07-26 14:58:00+00",7.7,9.7,,85.5,-305,-102,57,1016.36,92.7,0
"2020-07-26 15:03:00+00",8.7,10.7,,85.6,-348,-186,3,1016.28,93.4,0
"2020-07-26 15:08:00+00",9.6,11.6,,85.6,-280,-320,-3,1016.21,93,0
"2020-07-26 15:13:00+00",8.7,9.7,,85.6,-284,-250,-2,1016.22,92.2,0
"2020-07-26 15:18:00+00",7.3,9.3,,85.9,-256,-210,50,1016.15,92.1,0
"2020-07-26 15:23:00+00",8.8,10.8,,86.1,-330,-229,13,1016.02,93,0
"2020-07-26 15:28:00+00",7.7,9.7,,86.1,-257,-234,62,1015.96,92.4,0
"2020-07-26 15:33:00+00",8.2,9.2,,85.9,-243,-268,7,1015.92,91.7,0
"2020-07-26 15:38:00+00",9.1,10.1,,85.9,-265,-318,-5,1015.88,91.2,0
"2020-07-26 15:43:00+00",6.7,9.7,,85.9,-105,-260,14,1015.91,90.7,0
"2020-07-26 15:48:00+00",6.4,9.4,,85.6,-6,-259,8,1015.93,88.7,0
"2020-07-26 15:53:00+00",7.6,9.6,,84.5,42,-310,8,1015.86,86.6,0
"2020-07-26 15:58:00+00",8.0,11.0,,83.6,73,-350,-6,1015.91,85,0
"2020-07-26 16:03:00+00",7.8,9.8,,83.7,55,-328,-18,1015.95,84.6,0
"2020-07-26 16:08:00+00",7.7,9.7,,84.6,-73,-331,10,1015.89,85,0
"2020-07-26 16:13:00+00",9.2,12.2,,85.5,-116,-364,-3,1015.73,86.6,0
"2020-07-26 16:18:00+00",7.0,11.0,,85.8,-30,-302,5,1015.72,87.2,0
"2020-07-26 16:23:00+00",8.8,11.8,,85.8,-30,-382,-1,1015.62,87.7,0
"2020-07-26 16:28:00+00",7.3,10.3,,85.6,-31,-304,-7,1015.6,87.4,0
"2020-07-26 16:33:00+00",10.0,14.0,,84.5,50,-434,-6,1015.61,86.4,0
"2020-07-26 16:38:00+00",9.6,12.6,,84.3,-39,-406,-2,1015.52,85.5,0
"2020-07-26 16:43:00+00",10.1,14.1,,84.9,-78,-410,5,1015.48,86.1,0
"2020-07-26 16:48:00+00",11.8,14.8,,84.6,-73,-531,-25,1015.37,86.4,0
"2020-07-26 16:53:00+00",10.0,13.0,,84.3,-30,-421,-1,1015.37,86.5,0
"2020-07-26 16:58:00+00",9.8,13.8,,84.8,-62,-393,39,1015.34,86.8,0
"2020-07-26 17:03:00+00",14.6,17.6,,84.9,-187,-607,-26,1015.12,86.9,0
"2020-07-26 17:08:00+00",13.4,17.4,,84.9,-93,-563,1,1015.1,86.7,0
"2020-07-26 17:13:00+00",16.2,19.2,,84.8,-139,-677,-29,1015.07,86.6,0
"2020-07-26 17:18:00+00",11.6,16.6,,84.2,-113,-472,23,1015.11,86,0
"2020-07-26 17:23:00+00",16.5,20.5,,83.8,-262,-696,-17,1015.02,85.5,0
"2020-07-26 17:28:00+00",14.6,18.6,,84.5,-261,-587,-4,1014.88,86.1,0
"2020-07-26 17:33:00+00",16.6,18.6,,84.4,-234,-679,-8,1014.81,86.5,0
"2020-07-26 17:38:00+00",13.2,18.2,,84.2,-76,-572,-20,1014.73,86.5,0
"2020-07-26 17:43:00+00",13.6,15.6,,83.7,-75,-588,-15,1014.7,85.9,0
"2020-07-26 17:48:00+00",14.4,16.4,,83.6,-247,-581,-27,1014.69,85.4,0
"2020-07-26 17:53:00+00",11.4,15.4,,83.8,-165,-462,13,1014.68,85.7,0
"2020-07-26 17:58:00+00",11.7,14.7,,84.4,-217,-473,20,1014.72,86.7,0
"2020-07-26 18:03:00+00",13.2,17.2,,85.1,-177,-555,1,1014.51,87,0
"2020-07-26 18:08:00+00",10.3,16.3,,85,-64,-409,13,1014.57,86.7,0
"2020-07-26 18:13:00+00",14.1,17.1,,84.9,-163,-587,-26,1014.51,86.7,0
"2020-07-26 18:18:00+00",10.4,14.4,,85.1,-98,-448,26,1014.51,86.6,0
"2020-07-26 18:23:00+00",9.2,12.2,,85.3,-93,-400,27,1014.64,86.9,0
"2020-07-26 18:28:00+00",10.9,14.9,,84.9,-50,-445,-7,1014.55,86.2,0
"2020-07-26 18:33:00+00",11.2,15.2,,84.3,-88,-474,21,1014.52,85.5,0
"2020-07-26 18:38:00+00",12.6,18.6,,83.8,-136,-535,-12,1014.36,84.9,0
"2020-07-26 18:43:00+00",5.7,8.7,,84,-101,-199,29,1014.54,84.8,0
"2020-07-26 18:48:00+00",4.3,8.3,,83.7,-15,-33,52,1014.57,84.8,0
"2020-07-26 18:53:00+00",2.0,3.0,,82.9,37,38,2,1014.54,84.8,0
"2020-07-26 18:58:00+00",4.4,5.4,,83,144,122,0,1014.52,85.1,0
"2020-07-26 19:03:00+00",2.5,4.5,,82.8,-71,30,-6,1014.48,85.1,0
"2020-07-26 19:08:00+00",9.2,11.2,,84.2,-308,-263,26,1014.27,85.6,0
"2020-07-26 19:13:00+00",13.6,16.6,,84.9,-285,-534,4,1014.12,86.5,0
"2020-07-26 19:18:00+00",16.4,17.4,,84.2,-348,-658,-18,1014.06,86,0
"2020-07-26 19:23:00+00",16.5,19.5,,83.6,-447,-617,16,1014.03,84.9,0
"2020-07-26 19:28:00+00",14.6,16.6,,83.3,-354,-568,-6,1014.07,83.4,0
"2020-07-26 19:33:00+00",13.5,15.5,,83.5,-341,-523,28,1014.03,83.1,0
"2020-07-26 19:38:00+00",13.6,16.6,,84,-288,-536,11,1013.92,83.6,0
"2020-07-26 19:43:00+00",13.6,15.6,,84.1,-273,-543,4,1013.91,83.8,0
"2020-07-26 19:48:00+00",16.0,19.0,,84.5,-267,-651,10,1013.78,84.4,0
"2020-07-26 19:53:00+00",16.9,20.9,,85.1,-299,-707,-17,1013.67,85.1,0
"2020-07-26 19:58:00+00",17.7,20.7,,85.8,-406,-702,13,1013.67,86.4,0
"2020-07-26 20:03:00+00",18.7,20.7,,85.7,-508,-702,-2,1013.52,86.9,0
"2020-07-26 20:08:00+00",16.1,18.1,,85.5,-317,-641,-9,1013.64,87,0
"2020-07-26 20:13:00+00",15.7,17.7,,85.3,-221,-646,-13,1013.57,86.2,0
"2020-07-26 20:18:00+00",13.6,16.6,,84.7,-202,-567,17,1013.64,85.2,0
"2020-07-26 20:23:00+00",11.1,15.1,,84.4,-115,-468,-17,1013.73,84.6,0
"2020-07-26 20:28:00+00",11.7,15.7,,83.8,-89,-469,9,1013.62,83.9,0
"2020-07-26 20:33:00+00",15.7,18.7,,83.5,-243,-650,-3,1013.64,83.6,0
"2020-07-26 20:38:00+00",13.3,16.3,,83.4,-223,-539,-16,1013.71,83.4,0
"2020-07-26 20:43:00+00",13.5,17.5,,83.4,-375,-477,27,1013.67,83.4,0
"2020-07-26 20:48:00+00",22.1,26.1,,82.4,-632,-810,12,1013.61,83,0
"2020-07-26 20:53:00+00",16.9,17.9,,82.3,-455,-619,7,1013.58,82.1,0
"2020-07-26 20:58:00+00",15.4,17.4,,82.6,-199,-640,-8,1013.6,82.6,0
"2020-07-26 21:03:00+00",13.2,17.2,,82.5,-142,-536,4,1013.65,83,0
"2020-07-26 21:08:00+00",9.4,11.4,,83.2,-79,-402,6,1013.59,83.9,0
"2020-07-26 21:13:00+00",13.3,16.3,,84.2,-237,-538,0,1013.47,84.9,0
"2020-07-26 21:18:00+00",6.8,9.8,,84.7,-78,-282,6,1013.5,85.8,0
"2020-07-26 21:23:00+00",17.4,21.4,,84.7,-328,-730,-5,1013.28,85.9,0
"2020-07-26 21:28:00+00",12.6,14.6,,84.2,-297,-490,0,1013.5,85.5,0
"2020-07-26 21:33:00+00",9.4,11.4,,84.3,-145,-369,-21,1013.48,85.3,0
"2020-07-26 21:38:00+00",6.8,9.8,,84.3,-23,-280,24,1013.53,85.2,0
"2020-07-26 21:43:00+00",14.2,17.2,,83.7,-403,-490,8,1013.42,85,0
"2020-07-26 21:48:00+00",12.7,14.7,,83.6,-480,-358,32,1013.39,85.2,0
"2020-07-26 21:53:00+00",15.7,17.7,,83.7,-435,-560,2,1013.28,85.3,0
"2020-07-26 21:58:00+00",13.2,16.2,,83.5,-381,-486,29,1013.32,85.1,0
"2020-07-26 22:03:00+00",14.5,15.5,,83.2,-333,-562,-5,1013.29,84.3,0
"2020-07-26 22:08:00+00",15.6,17.6,,83,-391,-597,15,1013.2,84.1,0
"2020-07-26 22:13:00+00",13.4,16.4,,82.8,-281,-539,3,1013.3,83.9,0
"2020-07-26 22:18:00+00",13.1,15.1,,82.7,-319,-504,-1,1013.25,83.5,0
"2020-07-26 22:23:00+00",14.5,17.5,,82.7,-339,-561,2,1013.25,83.4,0
"2020-07-26 22:28:00+00",14.4,16.4,,82.8,-306,-581,-15,1013.21,83.5,0
"2020-07-26 22:33:00+00",12.4,14.4,,82.8,-265,-481,5,1013.21,83.5,0
"2020-07-26 22:38:00+00",11.5,13.5,,82.8,-288,-457,19,1013.2,83.6,0
"2020-07-26 22:43:00+00",13.5,15.5,,82.8,-329,-522,2,1013.01,83.7,0
"2020-07-26 22:48:00+00",12.2,14.2,,82.7,-300,-459,15,1012.94,83.7,0
"2020-07-26 22:53:00+00",13.2,16.2,,82.6,-333,-525,7,1013.01,83.4,0
"2020-07-26 22:58:00+00",13.6,15.6,,82.7,-323,-533,-6,1013.04,83.3,0
"2020-07-26 23:03:00+00",12.4,13.4,,82.8,-323,-476,-5,1013.1,83.3,0
"2020-07-26 23:08:00+00",10.0,12.0,,82.7,-270,-385,17,1013,83.3,0
"2020-07-26 23:13:00+00",10.1,12.1,,82.7,-263,-377,14,1013.12,83.3,0
"2020-07-26 23:18:00+00",10.2,12.2,,82.6,-278,-379,18,1013.08,83.2,0
"2020-07-26 23:23:00+00",10.1,12.1,,82.6,-275,-371,15,1013.03,83.1,0
"2020-07-26 23:28:00+00",10.4,12.4,,82.6,-288,-388,-6,1013.03,83,0
"2020-07-26 23:33:00+00",10.0,12.0,,82.6,-261,-387,-3,1012.99,82.8,0
"2020-07-26 23:38:00+00",9.0,11.0,,82.5,-236,-344,9,1012.95,82.7,0
"2020-07-26 23:43:00+00",9.8,10.8,,82.5,-268,-355,5,1012.87,82.6,0
"2020-07-26 23:48:00+00",9.9,11.9,,82.6,-294,-334,3,1012.93,82.5,0
"2020-07-26 23:53:00+00",9.2,11.2,,82.6,-262,-309,2,1012.81,82.4,0
"2020-07-26 23:58:00+00",9.5,11.5,,82.4,-281,-342,10,1012.99,82.2,0
